20050709,000007,876713,33.159368,-120.024300,17.0,14.674,33.423,40.876,1125.77,0.0,6.333,14.303,14.263, NaN,24.826,   NaN,14.57,1013.64,95.95,14.86,352.0,354.8,14.0,13.3,317.5,320.2,14.0,13.3,NaN, NaN,17.7,231.6,234.3,1120867207,1120867207,1,1.0,000007,000007,335.0,33.159217,-120.024285,0.07,NaN,NaN,14.678, NaN,NaN,NaN, NaN, NaN
20050709,000037,876743,33.159363,-120.024187,17.0,14.672,33.424,40.875,1178.83,0.0,5.654,14.302,14.264, NaN,24.828,   NaN,14.59,1013.68,95.99,14.88,341.5,342.9,12.9,12.1,318.1,319.4,13.2,12.5,NaN, NaN,17.2,88.2,89.6,1120867237,1120867236,1,0.6,000036,000036,348.0,33.159208,-120.024217,0.22,NaN,NaN,14.676, NaN,NaN,NaN, NaN, NaN
20050709,000107,876773,33.159437,-120.024022,16.9,14.671,33.424,40.874,1223.64,0.0,5.805,14.302,14.266, NaN,24.828,   NaN,14.53,1013.54,95.87,14.84,322.0,324.7,13.3,13.7,310.8,313.6,13.6,13.9,NaN, NaN,17.3,54.2,46.5,1120867267,1120867267,1,0.7,000067,000067,359.6,33.159285,-120.024087,1.01,NaN,NaN,14.675, NaN,NaN,NaN, NaN, NaN
20050709,000137,876802,33.159542,-120.023843,16.9,14.670,33.421,40.870,1149.67,0.0,5.767,14.302,14.263, NaN,24.826,   NaN,14.55,1013.57,95.93,14.85,315.3,315.1,14.0,14.7,311.3,311.2,14.2,14.8,NaN, NaN,17.1,35.8,45.4,1120867297,1120867297,1,1.0,000096,000097,358.3,33.159397,-120.023893,1.25,NaN,NaN,14.674, NaN,NaN,NaN, NaN, NaN
20050709,000207,876832,33.159650,-120.023642,16.9,14.670,33.426,40.875,1205.31,0.0,6.031,14.301,14.263, NaN,24.829,   NaN,14.54,1013.62,95.90,14.85,316.0,316.7,13.8,14.7,309.4,310.3,14.0,14.9,NaN, NaN,17.2,247.9,84.7,1120867327,1120867327,1,1.4,000127,000127,350.0,33.159490,-120.023678,0.68,NaN,NaN,14.674, NaN,NaN,NaN, NaN, NaN
20050709,000237,876863,33.159655,-120.023475,16.6,14.669,33.424,40.872,1347.86,0.0,6.616,14.302,14.259, NaN,24.829,   NaN,14.56,1013.76,95.86,14.88,318.4,321.6,12.7,13.5,306.5,309.7,13.1,13.9,NaN, NaN,17.7,89.2,86.0,1120867357,1120867357,1,2.2,000157,000157,345.8,33.159495,-120.023500,0.12,NaN,NaN,14.673, NaN,NaN,NaN, NaN, NaN
20050709,000307,876893,33.159642,-120.023342,16.8,14.671,33.418,40.867,1183.31,0.0,5.918,14.299,14.258, NaN,24.823,   NaN,14.59,1013.74,95.89,14.88,322.4,324.6,11.3,12.3,309.5,311.6,11.7,12.6,NaN, NaN,18.5,66.2,7.7,1120867387,1120867386,1,0.8,000186,000186,350.6,33.159490,-120.023375,0.43,NaN,NaN,14.675, NaN,NaN,NaN, NaN, NaN
20050709,000337,876923,33.159883,-120.023278,16.7,14.671,33.419,40.869,1055.95,0.0,6.069,14.299,14.257, NaN,24.824,   NaN,14.58,1013.64,95.91,14.90,332.4,331.1,11.6,11.7,315.0,313.5,11.4,11.6,NaN, NaN,18.6,19.5,21.3,1120867417,1120867417,1,3.1,000217,000217,329.5,33.159740,-120.023255,2.09,NaN,NaN,14.675, NaN,NaN,NaN, NaN, NaN
20050709,000407,876952,33.160192,-120.023470,17.0,14.673,33.423,40.875,991.69,0.0,5.635,14.299,14.257, NaN,24.827,   NaN,14.56,1013.55,95.90,14.89,343.6,345.1,13.5,12.8,313.1,314.6,12.5,11.9,NaN, NaN,17.9,335.6,332.5,1120867447,1120867447,1,2.7,000247,000247,329.6,33.160045,-120.023448,2.99,NaN,NaN,14.677, NaN,NaN,NaN, NaN, NaN
20050709,000437,876982,33.160540,-120.023678,17.0,14.670,33.422,40.871,1015.52,0.0,6.314,14.299,14.256, NaN,24.827,   NaN,14.56,1013.49,95.96,14.89,343.7,348.5,14.3,13.7,311.9,317.1,12.9,12.3,NaN, NaN,18.7,320.7,328.7,1120867478,1120867477,1,3.3,000277,000277,335.2,33.160412,-120.023673,3.55,NaN,NaN,14.674, NaN,NaN,NaN, NaN, NaN
20050709,000507,877013,33.160952,-120.023872,17.0,14.669,33.423,40.871,1199.12,0.0,6.069,14.292,14.254, NaN,24.828,   NaN,14.55,1013.62,95.96,14.89,341.4,345.7,15.0,14.0,312.9,317.4,13.6,12.4,NaN, NaN,18.8,326.7,326.5,1120867507,1120867507,1,3.3,000306,000307,334.8,33.160837,-120.023878,3.64,NaN,NaN,14.673, NaN,NaN,NaN, NaN, NaN
20050709,000537,877043,33.161408,-120.024087,16.8,14.668,33.422,40.869,1407.81,0.0,5.899,14.285,14.247, NaN,24.827,   NaN,14.58,1013.62,95.97,14.89,342.9,346.3,15.0,13.8,315.1,318.6,13.5,12.2,NaN, NaN,19.1,353.6,331.1,1120867538,1120867537,1,3.3,000337,000337,335.3,33.161272,-120.024082,3.81,NaN,NaN,14.672, NaN,NaN,NaN, NaN, NaN
20050709,000607,877073,33.161848,-120.024278,16.6,14.661,33.427,40.869,1068.50,0.0,5.899,14.276,14.238, NaN,24.833,   NaN,14.59,1013.56,95.98,14.89,342.3,343.6,14.7,13.5,314.3,315.4,13.1,11.9,NaN, NaN,18.5,313.9,343.9,1120867567,1120867567,1,3.6,000367,000367,334.6,33.161713,-120.024268,3.62,NaN,NaN,14.665, NaN,NaN,NaN, NaN, NaN
20050709,000638,877104,33.162247,-120.024440,16.8,14.651,33.429,40.860,1033.51,0.0,6.333,14.266,14.225, NaN,24.836,   NaN,14.58,1013.63,96.08,14.89,339.5,340.5,14.2,13.4,311.1,312.1,12.7,12.0,NaN, NaN,18.8,323.7,333.1,1120867598,1120867598,1,3.3,000397,000398,334.6,33.162127,-120.024448,3.38,NaN,NaN,14.655, NaN,NaN,NaN, NaN, NaN
20050709,000707,877132,33.162702,-120.024682,16.8,14.634,33.438,40.854,969.68,0.0,6.390,14.254,14.216, NaN,24.846,   NaN,14.58,1013.53,96.11,14.90,338.7,341.0,13.3,12.8,310.0,312.4,11.8,11.3,NaN, NaN,18.9,346.4,340.0,1120867627,1120867627,1,3.7,000427,000427,335.0,33.162562,-120.024670,4.07,NaN,NaN,14.638, NaN,NaN,NaN, NaN, NaN
20050709,000737,877162,33.163138,-120.024905,16.7,14.620,33.435,40.838,1067.03,0.0,6.107,14.239,14.200, NaN,24.847,   NaN,14.58,1013.64,96.08,14.90,342.0,343.5,13.6,12.9,313.5,314.9,11.9,11.2,NaN, NaN,18.1,356.9,345.1,1120867657,1120867657,1,3.3,000457,000457,334.7,33.163008,-120.024898,3.92,NaN,NaN,14.624, NaN,NaN,NaN, NaN, NaN
20050709,000807,877193,33.163575,-120.025103,17.0,14.610,33.433,40.826,1162.18,0.0,6.088,14.227,14.187, NaN,24.848,   NaN,14.54,1013.44,96.00,14.88,341.0,343.7,15.1,13.6,312.7,315.4,13.6,12.0,NaN, NaN,18.8,348.9,351.0,1120867687,1120867687,1,3.1,000487,000487,335.1,33.163432,-120.025098,3.71,NaN,NaN,14.614, NaN,NaN,NaN, NaN, NaN
20050709,000837,877223,33.164013,-120.025335,16.8,14.598,33.430,40.812,1067.06,0.0,5.824,14.224,14.183, NaN,24.848,   NaN,14.55,1013.60,96.13,14.86,337.4,341.9,14.6,14.0,308.5,313.4,13.1,12.4,NaN, NaN,18.3,351.3,343.0,1120867718,1120867717,1,3.5,000517,000517,334.3,33.163870,-120.025328,3.82,NaN,NaN,14.602, NaN,NaN,NaN, NaN, NaN
20050709,000907,877253,33.164482,-120.025567,16.7,14.587,33.431,40.802,1125.27,0.0,6.352,14.215,14.178, NaN,24.852,   NaN,14.57,1013.50,96.17,14.89,339.3,343.8,14.5,14.1,310.8,315.8,12.8,12.4,NaN, NaN,17.8,333.6,334.4,1120867747,1120867747,1,4.0,000547,000547,335.0,33.164338,-120.025558,3.78,NaN,NaN,14.591, NaN,NaN,NaN, NaN, NaN
20050709,000938,877284,33.164918,-120.025767,16.8,14.579,33.428,40.792,1279.11,0.0,6.333,14.209,14.171, NaN,24.851,   NaN,14.58,1013.53,96.06,14.90,343.4,345.7,15.1,14.4,315.6,318.0,13.5,12.8,NaN, NaN,19.5,337.9,341.5,1120867778,1120867777,1,4.3,000577,000577,334.8,33.164780,-120.025763,3.93,NaN,NaN,14.582, NaN,NaN,NaN, NaN, NaN
20050709,001007,877312,33.165418,-120.026065,16.8,14.574,33.426,40.785,1102.57,0.0,6.352,14.204,14.164, NaN,24.850,   NaN,14.57,1013.52,96.07,14.87,345.4,346.5,15.1,14.4,313.1,314.1,13.3,12.5,NaN, NaN,19.5,302.9,321.1,1120867807,1120867807,1,4.4,000606,000607,307.2,33.165320,-120.026023,4.57,NaN,NaN,14.577, NaN,NaN,NaN, NaN, NaN
20050709,001037,877343,33.165568,-120.026825,16.7,14.571,33.427,40.783,1152.17,0.0,6.465,14.197,14.156, NaN,24.852,   NaN,14.58,1013.35,96.09,14.86,12.2,12.6,15.0,14.2,312.4,313.2,13.0,12.2,NaN, NaN,18.7,248.1,256.5,1120867838,1120867837,1,5.2,000637,000637,253.1,33.165557,-120.026700,4.82,NaN,NaN,14.574, NaN,NaN,NaN, NaN, NaN
20050709,001108,877373,33.165110,-120.027620,17.0,14.561,33.430,40.778,1078.70,0.0,13.903,14.194,14.154, NaN,24.856,   NaN,14.55,1013.36,96.05,14.86,51.8,55.2,12.9,10.3,317.7,326.0,11.7,9.4,NaN, NaN,18.3,237.2,237.4,1120867868,1120867867,1,6.5,000667,000667,239.8,33.165132,-120.027500,5.85,NaN,NaN,14.564, NaN,NaN,NaN, NaN, NaN
20050709,001137,877403,33.164535,-120.028443,16.7,14.554,33.424,40.764,1098.22,0.0,13.393,14.193,14.156, NaN,24.853,   NaN,14.55,1013.34,96.13,14.85,63.4,73.1,11.1,6.6,320.2,341.1,10.5,7.0,NaN, NaN,18.4,243.4,238.4,1120867897,1120867897,1,6.5,000696,000697,238.1,33.164543,-120.028367,6.29,NaN,NaN,14.557, NaN,NaN,NaN, NaN, NaN
20050709,001207,877433,33.163912,-120.029358,16.9,14.551,33.425,40.761,1344.59,0.0,8.542,14.201,14.159, NaN,24.854,   NaN,14.55,1013.34,96.07,14.89,63.2,69.4,10.9,6.1,321.3,351.6,10.4,6.6,NaN, NaN,18.6,225.1,230.5,1120867927,1120867927,1,6.9,000726,000727,238.3,33.163912,-120.029283,6.80,NaN,NaN,14.554, NaN,NaN,NaN, NaN, NaN
20050709,001237,877462,33.163248,-120.030292,16.7,14.558,33.421,40.764,1444.45,0.0,8.391,14.204,14.165, NaN,24.850,   NaN,14.52,1013.36,96.05,14.86,62.9,67.0,11.0,6.7,321.1,338.2,10.4,6.9,NaN, NaN,19.3,225.5,216.7,1120867958,1120867957,1,7.5,000757,000757,239.1,33.163263,-120.030178,6.62,NaN,NaN,14.561, NaN,NaN,NaN, NaN, NaN
20050709,001307,877492,33.162638,-120.031210,16.7,14.563,33.420,40.767,1280.58,0.0,8.768,14.210,14.173, NaN,24.848,   NaN,14.55,1013.27,96.12,14.88,62.0,68.9,10.5,5.9,321.1,343.3,9.9,6.3,NaN, NaN,19.2,211.4,234.5,1120867988,1120867987,1,6.7,000787,000787,236.4,33.162668,-120.031103,6.66,NaN,NaN,14.566, NaN,NaN,NaN, NaN, NaN
20050709,001337,877523,33.161988,-120.032088,17.2,14.568,33.420,40.772,1305.83,0.0,8.523,14.216,14.181, NaN,24.847,   NaN,14.51,1013.26,96.09,14.89,64.3,74.9,11.5,6.8,321.4,343.4,11.1,7.4,NaN, NaN,18.2,231.1,226.1,1120868017,1120868017,1,7.2,000817,000817,239.2,33.162007,-120.031972,6.58,NaN,NaN,14.571, NaN,NaN,NaN, NaN, NaN
20050709,001407,877553,33.161367,-120.033000,16.9,14.575,33.421,40.781,1439.17,0.0,7.994,14.216,14.181, NaN,24.846,   NaN,14.51,1013.10,96.01,14.86,67.9,69.9,12.4,7.4,323.9,337.4,12.1,7.6,NaN, NaN,18.8,233.0,239.0,1120868047,1120868047,1,6.4,000847,000847,238.5,33.161383,-120.032880,6.79,NaN,NaN,14.578, NaN,NaN,NaN, NaN, NaN
20050709,001437,877583,33.160730,-120.033898,16.9,14.575,33.422,40.782,1172.49,0.0,7.825,14.223,14.182, NaN,24.847,   NaN,14.50,1013.38,96.12,14.84,65.9,67.8,12.0,7.7,322.9,335.7,11.6,7.7,NaN, NaN,19.5,236.1,226.4,1120868077,1120868077,1,7.0,000877,000877,239.1,33.160757,-120.033790,6.70,NaN,NaN,14.578, NaN,NaN,NaN, NaN, NaN
20050709,001507,877613,33.160107,-120.034828,17.3,14.567,33.430,40.782,1158.55,0.0,7.560,14.227,14.181, NaN,24.855,   NaN,14.53,1013.14,96.16,14.83,66.1,73.6,11.7,7.6,323.4,340.4,11.3,7.9,NaN, NaN,18.2,257.1,234.0,1120868107,1120868107,1,7.3,000907,000907,236.5,33.160132,-120.034720,6.81,NaN,NaN,14.570, NaN,NaN,NaN, NaN, NaN
20050709,001537,877642,33.159457,-120.035742,16.9,14.579,33.415,40.778,1034.31,0.0,7.768,14.226,14.185, NaN,24.840,   NaN,14.54,1013.14,96.14,14.87,65.6,73.7,11.8,7.2,322.2,341.3,11.3,7.6,NaN, NaN,18.9,226.1,228.5,1120868137,1120868137,1,6.9,000937,000937,239.1,33.159483,-120.035632,6.77,NaN,NaN,14.582, NaN,NaN,NaN, NaN, NaN
20050709,001607,877672,33.158847,-120.036670,16.7,14.590,33.418,40.790,1173.51,0.0,7.655,14.233,14.199, NaN,24.840,   NaN,14.54,1013.31,96.10,14.88,63.0,79.1,11.8,7.0,320.3,345.1,11.2,7.6,NaN, NaN,18.6,237.9,245.2,1120868168,1120868167,1,7.1,000967,000967,239.0,33.158867,-120.036555,6.60,NaN,NaN,14.594, NaN,NaN,NaN, NaN, NaN
20050709,001637,877703,33.158212,-120.037600,17.2,14.595,33.420,40.797,1194.86,0.0,8.127,14.243,14.211, NaN,24.841,   NaN,14.56,1013.31,96.05,14.88,61.0,75.3,10.9,7.0,319.3,343.0,10.2,7.5,NaN, NaN,18.9,251.8,242.2,1120868198,1120868197,1,7.1,000997,000997,239.0,33.158232,-120.037477,6.82,NaN,NaN,14.599, NaN,NaN,NaN, NaN, NaN
20050709,001707,877733,33.157572,-120.038502,16.6,14.603,33.417,40.802,1096.47,0.0,7.938,14.255,14.219, NaN,24.837,   NaN,14.59,1013.46,96.10,14.94,63.4,72.3,10.8,6.6,321.2,343.1,10.2,7.1,NaN, NaN,18.7,239.5,239.5,1120868228,1120868227,1,6.8,001027,001027,237.6,33.157597,-120.038388,6.78,NaN,NaN,14.607, NaN,NaN,NaN, NaN, NaN
20050709,001737,877763,33.156940,-120.039402,17.0,14.613,33.416,40.810,1131.77,0.0,8.485,14.264,14.228, NaN,24.834,   NaN,14.57,1013.24,96.03,14.94,69.0,72.4,10.8,6.5,326.4,343.8,10.6,7.0,NaN, NaN,19.2,222.4,235.7,1120868257,1120868257,1,7.2,001057,001057,239.3,33.156972,-120.039287,6.62,NaN,NaN,14.617, NaN,NaN,NaN, NaN, NaN
20050709,001808,877794,33.156287,-120.040285,17.3,14.627,33.413,40.820,1132.54,0.0,7.919,14.273,14.237, NaN,24.829,   NaN,14.55,1012.86,96.03,14.92,65.3,66.0,11.5,6.8,322.1,336.5,11.0,6.9,NaN, NaN,18.3,242.4,223.6,1120868288,1120868287,1,7.7,001087,001087,237.6,33.156315,-120.040170,6.49,NaN,NaN,14.631, NaN,NaN,NaN, NaN, NaN
20050709,001837,877822,33.155685,-120.041173,17.3,14.638,33.414,40.832,1130.92,0.0,8.240,14.281,14.246, NaN,24.827,   NaN,14.53,1013.15,95.99,14.91,66.8,70.9,12.1,7.4,322.7,337.1,11.8,7.6,NaN, NaN,18.6,249.6,238.4,1120868317,1120868317,1,7.2,001117,001117,239.8,33.155702,-120.041057,6.48,NaN,NaN,14.642, NaN,NaN,NaN, NaN, NaN
20050709,001907,877853,33.155075,-120.042093,16.8,14.646,33.417,40.842,989.99,0.0,8.334,14.286,14.250, NaN,24.828,   NaN,14.58,1013.52,96.21,14.90,67.7,75.2,11.1,6.8,326.0,343.9,10.8,7.3,NaN, NaN,18.5,243.7,230.1,1120868348,1120868347,1,7.4,001147,001147,238.0,33.155097,-120.041980,6.63,NaN,NaN,14.650, NaN,NaN,NaN, NaN, NaN
20050709,001937,877883,33.154472,-120.043010,17.0,14.649,33.421,40.849,1026.26,0.0,8.296,14.292,14.254, NaN,24.830,   NaN,14.60,1013.38,96.21,14.90,63.9,68.8,10.3,5.4,323.4,346.4,9.7,5.7,NaN, NaN,19.3,248.5,230.4,1120868377,1120868377,1,7.1,001177,001177,237.8,33.154495,-120.042902,6.68,NaN,NaN,14.653, NaN,NaN,NaN, NaN, NaN
20050709,002007,877913,33.153855,-120.043933,16.6,14.654,33.418,40.851,1016.47,0.0,8.410,14.296,14.257, NaN,24.827,   NaN,14.59,1013.47,96.17,14.93,64.3,69.6,10.3,6.0,323.2,345.7,9.8,6.4,NaN, NaN,19.9,223.0,226.1,1120868407,1120868407,1,7.1,001207,001207,238.5,33.153878,-120.043823,6.78,NaN,NaN,14.658, NaN,NaN,NaN, NaN, NaN
20050709,002037,877943,33.153292,-120.044822,17.0,14.661,33.420,40.859,1438.03,0.0,8.259,14.302,14.266, NaN,24.827,   NaN,14.56,1013.15,96.06,14.89,62.2,74.3,11.1,6.3,320.0,346.1,10.5,6.9,NaN, NaN,18.2,246.9,237.7,1120868437,1120868437,1,6.8,001236,001237,238.6,33.153295,-120.044737,6.50,NaN,NaN,14.665, NaN,NaN,NaN, NaN, NaN
20050709,002107,877972,33.152673,-120.045760,16.6,14.661,33.422,40.862,1127.93,0.0,8.202,14.309,14.273, NaN,24.828,   NaN,14.57,1013.39,96.17,14.91,63.6,71.4,11.5,6.1,320.6,344.3,10.9,6.4,NaN, NaN,19.3,232.0,236.0,1120868467,1120868467,1,6.4,001267,001267,237.3,33.152693,-120.045642,6.55,NaN,NaN,14.665, NaN,NaN,NaN, NaN, NaN
20050709,002137,878002,33.152028,-120.046643,17.1,14.669,33.418,40.864,1157.33,0.0,7.994,14.314,14.279, NaN,24.823,   NaN,14.58,1013.19,96.21,14.92,64.7,77.3,11.7,7.2,321.0,345.4,11.3,7.9,NaN, NaN,18.5,237.8,210.8,1120868497,1120868497,1,8.1,001297,001297,239.5,33.152053,-120.046523,6.63,NaN,NaN,14.673, NaN,NaN,NaN, NaN, NaN
20050709,002208,878034,33.151468,-120.047552,16.8,14.674,33.422,40.875,1166.09,0.0,7.617,14.318,14.283, NaN,24.826,   NaN,14.57,1013.21,96.15,14.89,64.4,73.6,11.9,6.9,320.9,342.9,11.4,7.4,NaN, NaN,19.5,224.0,242.5,1120868528,1120868527,1,7.0,001327,001327,237.0,33.151488,-120.047433,6.39,NaN,NaN,14.678, NaN,NaN,NaN, NaN, NaN
20050709,002237,878063,33.150775,-120.048517,17.4,14.681,33.423,40.882,1565.22,0.0,7.428,14.326,14.287, NaN,24.825,   NaN,14.57,1013.03,95.99,14.93,65.2,72.5,11.6,6.5,322.3,343.7,11.1,7.0,NaN, NaN,19.0,227.5,231.0,1120868558,1120868557,1,8.3,001357,001357,238.5,33.150800,-120.048402,7.34,NaN,NaN,14.685, NaN,NaN,NaN, NaN, NaN
20050709,002307,878093,33.150037,-120.049655,17.4,14.687,33.421,40.885,1100.36,0.0,7.239,14.330,14.294, NaN,24.822,   NaN,14.60,1013.17,96.19,14.93,66.9,70.4,11.2,6.1,327.6,348.5,10.7,6.6,NaN, NaN,19.0,237.3,226.8,1120868587,1120868587,1,9.6,001387,001387,237.5,33.150058,-120.049547,8.43,NaN,NaN,14.691, NaN,NaN,NaN, NaN, NaN
20050709,002338,878124,33.149262,-120.050910,17.0,14.692,33.423,40.892,974.36,0.0,6.692,14.333,14.297, NaN,24.823,   NaN,14.62,1013.37,96.19,14.93,61.2,62.2,10.8,6.8,325.0,343.6,9.9,6.7,NaN, NaN,19.4,225.1,232.5,1120868618,1120868617,1,9.7,001417,001417,239.0,33.149283,-120.050798,9.03,NaN,NaN,14.696, NaN,NaN,NaN, NaN, NaN
20050709,002408,878154,33.148443,-120.052200,17.1,14.692,33.426,40.897,986.83,0.0,6.522,14.335,14.299, NaN,24.825,   NaN,14.60,1013.17,96.15,14.92,59.9,68.1,10.9,7.5,325.0,346.0,9.9,7.8,NaN, NaN,19.8,236.1,233.3,1120868648,1120868648,1,10.7,001447,001448,238.8,33.148438,-120.052137,9.37,NaN,NaN,14.696, NaN,NaN,NaN, NaN, NaN
20050709,002437,878182,33.147605,-120.053577,17.2,14.695,33.424,40.895,1094.99,0.0,6.258,14.338,14.301, NaN,24.823,   NaN,14.59,1013.29,96.18,14.91,60.1,71.4,11.5,7.6,325.3,348.2,10.5,8.1,NaN, NaN,18.9,257.8,238.8,1120868677,1120868677,1,10.4,001477,001477,238.0,33.147617,-120.053470,9.90,NaN,NaN,14.699, NaN,NaN,NaN, NaN, NaN
20050709,002507,878213,33.146723,-120.054942,17.2,14.698,33.423,40.899,1150.15,0.0,6.352,14.342,14.310, NaN,24.822,   NaN,14.60,1013.17,96.15,14.93,61.6,71.2,11.9,7.9,327.1,348.2,11.1,8.5,NaN, NaN,19.3,230.2,219.9,1120868707,1120868707,1,11.2,001507,001507,238.8,33.146752,-120.054838,9.89,NaN,NaN,14.702, NaN,NaN,NaN, NaN, NaN
20050709,002538,878243,33.145912,-120.056353,17.1,14.704,33.422,40.903,1093.37,0.0,6.314,14.353,14.319, NaN,24.820,   NaN,14.61,1013.27,96.19,14.94,61.5,68.3,12.2,8.1,326.2,345.8,11.2,8.4,NaN, NaN,20.0,212.4,231.2,1120868738,1120868737,1,10.4,001537,001537,238.3,33.145932,-120.056253,9.99,NaN,NaN,14.708, NaN,NaN,NaN, NaN, NaN
20050709,002607,878273,33.145023,-120.057735,17.1,14.708,33.417,40.902,1251.14,0.0,5.635,14.360,14.323, NaN,24.815,   NaN,14.60,1013.32,96.13,14.92,59.4,63.5,11.8,8.5,324.7,339.9,10.6,8.2,NaN, NaN,18.8,234.0,228.0,1120868767,1120868767,1,10.8,001567,001567,239.0,33.145035,-120.057627,9.69,NaN,NaN,14.712, NaN,NaN,NaN, NaN, NaN
20050709,002637,878302,33.144153,-120.059177,17.2,14.717,33.417,40.909,1261.25,0.0,5.729,14.361,14.327, NaN,24.813,   NaN,14.63,1013.17,96.21,14.98,58.1,62.5,11.8,8.1,324.0,342.2,10.5,8.0,NaN, NaN,19.3,226.1,231.7,1120868797,1120868797,1,11.2,001597,001597,238.6,33.144168,-120.059063,10.24,NaN,NaN,14.721, NaN,NaN,NaN, NaN, NaN
20050709,002708,878334,33.143288,-120.060633,16.9,14.720,33.422,40.918,1463.30,0.0,6.352,14.367,14.332, NaN,24.816,   NaN,14.62,1013.08,96.11,14.97,61.6,61.8,11.8,7.4,328.2,346.2,10.9,7.3,NaN, NaN,19.8,240.4,237.0,1120868828,1120868828,1,11.2,001627,001628,239.2,33.143270,-120.060572,10.29,NaN,NaN,14.724, NaN,NaN,NaN, NaN, NaN
20050709,002737,878363,33.142402,-120.062092,17.2,14.718,33.426,40.920,1358.26,0.0,6.352,14.372,14.338, NaN,24.819,   NaN,14.62,1013.23,96.14,14.96,61.0,60.6,11.6,7.8,328.6,342.3,10.6,7.5,NaN, NaN,20.4,247.7,240.5,1120868857,1120868857,1,10.7,001657,001657,238.1,33.142415,-120.061992,10.36,NaN,NaN,14.722, NaN,NaN,NaN, NaN, NaN
20050709,002808,878393,33.141482,-120.063592,17.3,14.727,33.414,40.915,946.09,0.0,6.107,14.380,14.346, NaN,24.808,   NaN,14.60,1013.02,96.15,14.97,57.7,61.3,11.6,7.7,325.4,343.3,10.3,7.5,NaN, NaN,19.0,228.8,230.7,1120868888,1120868888,1,11.1,001688,001688,239.3,33.141500,-120.063483,10.08,NaN,NaN,14.731, NaN,NaN,NaN, NaN, NaN
20050709,002837,878423,33.140652,-120.064988,17.1,14.729,33.418,40.922,889.85,0.0,6.371,14.384,14.347, NaN,24.811,   NaN,14.62,1013.32,96.36,14.98,59.2,63.9,11.3,7.3,327.1,346.8,10.2,7.4,NaN, NaN,19.9,248.2,234.0,1120868917,1120868917,1,11.0,001717,001717,238.8,33.140657,-120.064885,10.15,NaN,NaN,14.733, NaN,NaN,NaN, NaN, NaN
20050709,002908,878454,33.139780,-120.066427,17.5,14.733,33.421,40.929,1015.72,0.0,6.333,14.387,14.349, NaN,24.812,   NaN,14.63,1013.01,96.32,14.98,59.3,62.6,11.7,7.6,325.8,344.8,10.4,7.5,NaN, NaN,18.7,237.5,227.6,1120868948,1120868947,1,11.6,001747,001747,238.8,33.139787,-120.066320,10.09,NaN,NaN,14.737, NaN,NaN,NaN, NaN, NaN
20050709,002937,878482,33.138937,-120.067843,17.0,14.740,33.418,40.932,1354.37,0.0,6.220,14.388,14.351, NaN,24.808,   NaN,14.65,1013.25,96.33,15.00,56.6,60.7,11.5,8.4,323.3,339.0,10.0,7.9,NaN, NaN,21.1,236.6,237.5,1120868977,1120868977,1,10.7,001777,001777,238.3,33.138943,-120.067742,10.15,NaN,NaN,14.744, NaN,NaN,NaN, NaN, NaN
20050709,003008,878514,33.138052,-120.069295,17.1,14.746,33.413,40.933,1832.24,0.0,6.296,14.390,14.354, NaN,24.803,   NaN,14.68,1013.10,96.27,15.06,54.8,59.1,11.5,8.9,321.7,335.0,9.9,8.1,NaN, NaN,20.4,224.4,239.4,1120869008,1120869007,1,10.3,001807,001807,238.6,33.138063,-120.069195,10.24,NaN,NaN,14.750, NaN,NaN,NaN, NaN, NaN
20050709,003038,878544,33.137205,-120.070770,17.3,14.744,33.419,40.937,1539.53,0.0,5.861,14.403,14.366, NaN,24.808,   NaN,14.66,1013.21,95.95,15.05,55.6,57.1,12.1,8.8,321.3,334.7,10.4,7.7,NaN, NaN,19.3,248.9,244.8,1120869038,1120869038,1,10.6,001837,001838,238.0,33.137185,-120.070713,10.07,NaN,NaN,14.748, NaN,NaN,NaN, NaN, NaN
20050709,003107,878573,33.136348,-120.072208,17.3,14.745,33.417,40.937,996.12,0.0,5.408,14.408,14.374, NaN,24.807,   NaN,14.62,1012.97,96.14,15.00,56.8,58.5,12.6,8.5,321.6,338.8,11.0,7.8,NaN, NaN,21.1,229.8,238.8,1120869067,1120869067,1,10.2,001867,001867,238.8,33.136358,-120.072102,10.12,NaN,NaN,14.749, NaN,NaN,NaN, NaN, NaN
20050709,003137,878603,33.135502,-120.073677,17.1,14.753,33.412,40.938,1064.18,0.0,4.766,14.409,14.374, NaN,24.801,   NaN,14.62,1013.31,96.28,14.99,61.8,74.6,12.2,7.9,327.4,352.2,11.2,8.7,NaN, NaN,20.2,237.1,248.0,1120869098,1120869097,1,10.5,001897,001897,240.0,33.135507,-120.073563,10.37,NaN,NaN,14.757, NaN,NaN,NaN, NaN, NaN
20050709,003207,878633,33.134605,-120.075082,17.3,14.752,33.411,40.936,1334.69,0.0,4.295,14.408,14.374, NaN,24.801,   NaN,14.66,1013.11,96.26,15.01,62.0,73.3,11.7,7.4,328.1,351.3,10.7,8.1,NaN, NaN,20.2,216.0,228.5,1120869127,1120869127,1,10.2,001927,001927,239.0,33.134625,-120.074980,9.93,NaN,NaN,14.756, NaN,NaN,NaN, NaN, NaN
20050709,003237,878662,33.133777,-120.076518,17.1,14.755,33.409,40.936,2119.87,0.0,4.370,14.412,14.378, NaN,24.798,   NaN,14.69,1013.25,95.90,15.03,59.3,62.1,11.7,7.4,325.7,344.2,10.4,7.2,NaN, NaN,20.3,229.3,227.6,1120869158,1120869157,1,11.3,001957,001957,239.6,33.133790,-120.076415,10.09,NaN,NaN,14.759, NaN,NaN,NaN, NaN, NaN
20050709,003307,878693,33.132905,-120.077950,17.1,14.754,33.403,40.929,1210.45,0.0,4.389,14.421,14.387, NaN,24.794,   NaN,14.73,1013.30,96.03,15.09,58.2,60.4,11.6,8.0,325.3,341.3,10.2,7.5,NaN, NaN,19.5,227.8,227.5,1120869188,1120869187,1,11.7,001987,001987,239.4,33.132917,-120.077850,10.14,NaN,NaN,14.758, NaN,NaN,NaN, NaN, NaN
20050709,003337,878723,33.132092,-120.079383,17.5,14.763,33.394,40.928,1147.62,0.0,4.370,14.434,14.399, NaN,24.785,   NaN,14.69,1013.07,95.98,15.06,60.9,61.2,12.2,8.2,326.4,341.4,11.0,7.8,NaN, NaN,19.8,238.7,233.0,1120869218,1120869217,1,11.2,002017,002017,239.0,33.132102,-120.079283,9.71,NaN,NaN,14.767, NaN,NaN,NaN, NaN, NaN
20050709,003407,878753,33.131235,-120.080827,17.0,14.779,33.383,40.931,1230.68,0.0,3.860,14.442,14.406, NaN,24.774,   NaN,14.68,1013.25,96.01,15.03,61.6,65.0,12.1,7.5,326.8,346.8,11.0,7.5,NaN, NaN,20.8,230.9,236.6,1120869247,1120869247,1,10.7,002047,002047,238.1,33.131243,-120.080725,10.20,NaN,NaN,14.783, NaN,NaN,NaN, NaN, NaN
20050709,003437,878783,33.130402,-120.082265,17.2,14.795,33.381,40.943,1559.08,0.0,3.766,14.448,14.412, NaN,24.768,   NaN,14.69,1013.12,95.99,15.05,59.1,65.1,12.1,7.8,324.7,344.9,10.8,7.8,NaN, NaN,19.9,236.9,246.4,1120869277,1120869277,1,11.0,002077,002077,237.6,33.130403,-120.082157,10.01,NaN,NaN,14.799, NaN,NaN,NaN, NaN, NaN
20050709,003507,878812,33.129530,-120.083602,17.6,14.804,33.378,40.948,1690.56,0.0,3.634,14.454,14.419, NaN,24.764,   NaN,14.74,1013.28,95.89,15.09,55.4,62.8,11.9,8.3,321.4,339.8,10.4,8.0,NaN, NaN,20.8,225.3,222.1,1120869308,1120869307,1,11.1,002107,002107,238.8,33.129543,-120.083502,9.69,NaN,NaN,14.808, NaN,NaN,NaN, NaN, NaN
20050709,003537,878842,33.128737,-120.084995,17.1,14.809,33.378,40.953,1561.23,0.0,3.540,14.465,14.430, NaN,24.763,   NaN,14.72,1013.37,95.86,15.10,56.3,60.7,11.8,7.9,321.2,341.5,10.3,7.5,NaN, NaN,21.2,231.5,239.6,1120869337,1120869337,1,10.2,002137,002137,237.8,33.128747,-120.084887,9.86,NaN,NaN,14.813, NaN,NaN,NaN, NaN, NaN